Location: Ulm
(48.3980°N, 9.9777°E)
Time: 13:33:52
(UTC+01:00)

ISS - Pass Details

Date: 06 January 2018
Orbit: 402 x 407 km, 51.6° (Epoch: 22 January)

Event Time Altitude Azimuth Distance (km) Brightness Sun altitude
Exits shadow 06:46:06 25° 304° (NW) 865 -2.8 -13.4°
Maximum altitude 06:47:40 47° 5° (N) 552 -3.3 -13.2°
Drops below altitude 10° 06:50:52 10° 81° (E) 1,471 0.0 -12.7°
Sets 06:53:00 0° 88° (E) 2,332 1.4 -12.3°
